M I D A S
Marine Information and Data Acquisition System
Tripno 1811 of the Zeeleeuw from 2009-11-20 09:27:40 to 2009-11-20 15:13:05
Back to CruiseResearch ActivitiesStationsMapUnderway DataData graphs

EquipmentUnitsComments
TimeDGPSUTC
LatitudeDGPSDM.mWGS84
LongitudeDGPSDM.mWGS84
SpeedMeteo Stationm/sRelative wind speed
DirectionMeteo StationdegRelative wind direction
TemperatureMeteo Stationdeg CelciusAir temperature
PressureMeteo StationPaAtmospheric pressure
HumidityMeteo Station%Relative humidity
Missing or incorrect values are displayed as -999
Metereological data collected by the RV Zeeleeuw from 2009-11-20 09:26:08 to 2009-11-20 15:18:39
Time Latitude Longitude Speed Direction Temperature Pressure Humidity
2009-11-20 09:27 51°13.678 2°55.886 5.3 34 12.3 101450 47
2009-11-20 09:28 51°13.688 2°55.801 7 42 12.3 101450 48
2009-11-20 09:29 51°13.69 2°55.767 2.2 42 12.3 101440 42
2009-11-20 09:30 51°13.694 2°55.767 6.9 36 12.3 101440 44
2009-11-20 09:31 51°13.706 2°55.75 6.9 261 12.4 101460 45
2009-11-20 09:32 51°13.785 2°55.67 1.4 265 12.4 101450 47
2009-11-20 09:33 51°13.905 2°55.572 5.8 256 12.4 101440 48
2009-11-20 09:34 51°14.042 2°55.47 1.7 257 12.4 101440 42
2009-11-20 09:35 51°14.18 2°55.356 6.2 250 12.4 101430 43
2009-11-20 09:36 51°14.291 2°55.19 7.1 239 12.4 101430 42
2009-11-20 09:37 51°14.398 2°55.01 8.6 250 12.4 101430 46
2009-11-20 09:38 51°14.509 2°54.814 10.2 253 12.4 101430 46
2009-11-20 09:39 51°14.606 2°54.556 12.9 251 12.3 101430 47
2009-11-20 09:40 51°14.697 2°54.287 12 246 12.3 101420 43
2009-11-20 09:41 51°14.771 2°54.006 13.6 248 12.3 101410 44
2009-11-20 09:42 51°14.842 2°53.726 14.8 249 12.3 101410 43
2009-11-20 09:43 51°14.912 2°53.443 13.3 249 12.2 101420 45
2009-11-20 09:44 51°14.988 2°53.136 13.9 247 12.2 101410 46
2009-11-20 09:45 51°15.058 2°52.851 12.9 249 12.2 101420 46
2009-11-20 09:46 51°15.128 2°52.564 12.2 251 12.2 101410 46
2009-11-20 09:47 51°15.197 2°52.276 11.3 248 12.1 101410 45
2009-11-20 09:48 51°15.264 2°51.986 10.4 248 12.1 101410 44
2009-11-20 09:49 51°15.281 2°51.678 14.1 25 12.1 101390 43
2009-11-20 09:50 51°15.267 2°51.362 15.5 25 12.1 101380 45
2009-11-20 09:51 51°15.253 2°51.042 13.8 21 12.1 101380 44
2009-11-20 09:52 51°15.238 2°50.723 14.8 23 12.1 101380 44
2009-11-20 09:53 51°15.212 2°50.408 12.8 21 12.1 101380 44
2009-11-20 09:54 51°15.184 2°50.09 13.3 27 12.1 101370 46
2009-11-20 09:55 51°15.159 2°49.771 15.1 24 12.2 101370 45
2009-11-20 09:56 51°15.134 2°49.453 15.1 26 12.2 101370 44
2009-11-20 09:57 51°15.11 2°49.136 14.8 24 12.2 101380 44
2009-11-20 09:58 51°15.086 2°48.822 13.6 284 12.2 101380 45
2009-11-20 09:59 51°15.062 2°48.507 14.8 24 12.2 101380 46
2009-11-20 10:00 51°15.038 2°48.193 13.3 279 12.3 101380 45
2009-11-20 10:01 51°15.015 2°47.88 12 27 12.3 101370 44
2009-11-20 10:02 51°14.991 2°47.568 12.7 26 12.3 101380 46
2009-11-20 10:03 51°14.97 2°47.259 13.7 22 12.4 101380 47
2009-11-20 10:04 51°14.947 2°46.952 14.5 284 12.4 101370 46
2009-11-20 10:05 51°14.919 2°46.648 16.9 25 12.4 101380 45
2009-11-20 10:06 51°14.869 2°46.35 14.6 21 12.5 101360 45
2009-11-20 10:07 51°14.813 2°46.054 16.6 279 12.5 101360 46
2009-11-20 10:08 51°14.757 2°45.755 16 27 12.6 101360 45
2009-11-20 10:09 51°14.694 2°45.461 14 23 12.6 101360 44
2009-11-20 10:10 51°14.615 2°45.177 15.9 25 12.6 101360 44
2009-11-20 10:11 51°14.528 2°44.898 16.2 24 12.6 101360 45
2009-11-20 10:12 51°14.416 2°44.644 16.6 25 12.6 101350 46
2009-11-20 10:13 51°14.298 2°44.394 17.8 283 12.6 101360 45
2009-11-20 10:14 51°14.182 2°44.143 16.6 25 12.6 101350 46
2009-11-20 10:15 51°14.065 2°43.892 16 25 12.6 101350 44
2009-11-20 10:16 51°13.949 2°43.638 15.8 20 12.7 101360 45
2009-11-20 10:17 51°13.834 2°43.386 16.5 281 12.7 101350 44
2009-11-20 10:18 51°13.718 2°43.134 16.7 286 12.7 101360 44
2009-11-20 10:19 51°13.602 2°42.883 14.8 316 12.7 101360 46
2009-11-20 10:20 51°13.485 2°42.631 16.8 315 12.7 101360 45
2009-11-20 10:21 51°13.368 2°42.38 16.9 316 12.8 101360 44
2009-11-20 10:22 51°13.252 2°42.128 18.3 283 12.8 101340 45
2009-11-20 10:23 51°13.136 2°41.877 18.3 316 12.8 101350 44
2009-11-20 10:24 51°13.02 2°41.627 14.5 316 12.8 101350 45
2009-11-20 10:25 51°12.909 2°41.369 17.4 24 12.9 101350 46
2009-11-20 10:26 51°12.804 2°41.106 16.9 24 12.9 101370 44
2009-11-20 10:27 51°12.693 2°40.85 15.9 281 12.9 101370 46
2009-11-20 10:28 51°12.577 2°40.598 15.9 317 12.9 101360 47
2009-11-20 10:29 51°12.463 2°40.343 15.8 285 12.9 101370 47
2009-11-20 10:30 51°12.348 2°40.09 14.5 25 12.9 101370 46
2009-11-20 10:31 51°12.234 2°39.839 15.5 279 12.9 101380 44
2009-11-20 10:32 51°12.12 2°39.586 14.3 24 12.9 101380 44
2009-11-20 10:33 51°12.006 2°39.333 16.2 282 12.9 101390 44
2009-11-20 10:34 51°11.894 2°39.081 15.8 315 12.9 101390 46
2009-11-20 10:35 51°11.779 2°38.832 16.1 25 12.9 101380 46
2009-11-20 10:36 51°11.666 2°38.581 14.1 282 13 101380 46
2009-11-20 10:37 51°11.553 2°38.33 16.2 25 13 101380 46
2009-11-20 10:38 51°11.439 2°38.079 13.5 281 13 101380 44
2009-11-20 10:39 51°11.327 2°37.827 16.7 317 13.1 101370 46
2009-11-20 10:40 51°11.214 2°37.576 14.9 280 13.1 101380 44
2009-11-20 10:41 51°11.101 2°37.325 15.1 316 13.1 101380 47
2009-11-20 10:42 51°10.988 2°37.075 15.2 316 13.1 101370 44
2009-11-20 10:43 51°10.873 2°36.826 14.9 318 13.2 101380 44
2009-11-20 10:44 51°10.755 2°36.584 13.8 320 13.2 101380 47
2009-11-20 10:45 51°10.619 2°36.368 15.9 278 13.2 101380 46
2009-11-20 10:46 51°10.469 2°36.177 14.2 324 13.2 101380 45
2009-11-20 10:47 51°10.306 2°36.021 16.4 326 13.2 101390 45
2009-11-20 10:48 51°10.13 2°35.904 13.9 329 13.3 101400 46
2009-11-20 10:49 51°9.946 2°35.899 15.6 283 13.3 101400 44
2009-11-20 10:50 51°9.767 2°35.971 15.7 340 13.3 101390 46
2009-11-20 10:51 51°9.637 2°36.039 12 359 13.3 101400 46
2009-11-20 10:52 51°9.621 2°36.122 10.5 27 13.3 101410 46
2009-11-20 10:53 51°9.624 2°36.196 10.3 24 13.3 101410 45
2009-11-20 10:54 51°9.622 2°36.262 10.8 20 13.3 101430 44
2009-11-20 10:55 51°9.606 2°36.359 11.3 10 13.3 101430 44
2009-11-20 10:56 51°9.573 2°36.45 10 6 13.3 101430 46
2009-11-20 10:57 51°9.543 2°36.524 9.1 5 13.3 101410 43
2009-11-20 10:58 51°9.504 2°36.591 10.5 1 13.3 101410 47
2009-11-20 10:59 51°9.466 2°36.661 10.5 3 13.3 101400 46
2009-11-20 11:00 51°9.437 2°36.743 12.4 7 13.3 101410 48
2009-11-20 11:01 51°9.413 2°36.828 10.4 11 13.3 101410 46
2009-11-20 11:02 51°9.391 2°36.915 11.1 9 13.3 101420 44
2009-11-20 11:03 51°9.375 2°37.006 12.1 17 13.4 101420 47
2009-11-20 11:04 51°9.37 2°37.105 10.7 19 13.4 101420 44
2009-11-20 11:05 51°9.383 2°37.203 9.1 29 13.4 101420 43
2009-11-20 11:06 51°9.416 2°37.289 11.4 42 13.4 101430 47
2009-11-20 11:07 51°9.457 2°37.37 8.5 40 13.4 101430 44
2009-11-20 11:08 51°9.496 2°37.453 10.5 38 13.4 101430 48
2009-11-20 11:09 51°9.536 2°37.536 9.2 41 13.5 101430 44
2009-11-20 11:10 51°9.575 2°37.621 9.9 40 13.5 101430 47
2009-11-20 11:11 51°9.613 2°37.706 7.4 43 13.5 101430 48
2009-11-20 11:12 51°9.652 2°37.791 7.2 40 13.5 101430 42
2009-11-20 11:13 51°9.691 2°37.877 9.6 43 13.5 101430 43
2009-11-20 11:14 51°9.729 2°37.962 9.4 41 13.5 101420 44
2009-11-20 11:15 51°9.768 2°38.049 8 38 13.5 101430 46
2009-11-20 11:16 51°9.807 2°38.135 9.4 44 13.5 101430 43
2009-11-20 11:17 51°9.847 2°38.222 7.5 39 13.5 101420 44
2009-11-20 11:18 51°9.886 2°38.309 9.7 40 13.5 101430 44
2009-11-20 11:19 51°9.926 2°38.398 7.8 41 13.5 101430 47
2009-11-20 11:20 51°9.966 2°38.486 9.7 43 13.5 101430 43
2009-11-20 11:21 51°10.004 2°38.571 9.8 42 13.5 101430 44
2009-11-20 11:22 51°10.041 2°38.652 8.8 42 13.6 101430 45
2009-11-20 11:23 51°10.078 2°38.733 8.8 42 13.5 101430 45
2009-11-20 11:24 51°10.115 2°38.814 9.4 43 13.5 101430 47
2009-11-20 11:25 51°10.153 2°38.896 9.5 42 13.5 101430 44
2009-11-20 11:26 51°10.19 2°38.978 10 41 13.6 101430 48
2009-11-20 11:27 51°10.228 2°39.06 8.6 38 13.6 101430 48
2009-11-20 11:28 51°10.266 2°39.141 9.3 43 13.6 101430 44
2009-11-20 11:29 51°10.305 2°39.224 10.2 41 13.6 101420 48
2009-11-20 11:30 51°10.343 2°39.308 12.8 43 13.6 101420 46
2009-11-20 11:31 51°10.381 2°39.391 9.9 43 13.7 101430 46
2009-11-20 11:32 51°10.415 2°39.48 14.2 34 13.7 101420 44
2009-11-20 11:33 51°10.427 2°39.575 13.1 26 13.7 101440 46
2009-11-20 11:34 51°10.433 2°39.663 12.1 26 13.7 101450 44
2009-11-20 11:35 51°10.431 2°39.745 11.2 17 13.7 101440 47
2009-11-20 11:36 51°10.422 2°39.823 15.1 9 13.7 101420 46
2009-11-20 11:37 51°10.411 2°39.897 12.2 14 13.7 101400 44
2009-11-20 11:38 51°10.406 2°39.951 15.2 12 13.7 101430 44
2009-11-20 11:39 51°10.408 2°39.996 10.1 10 13.7 101430 45
2009-11-20 11:40 51°10.414 2°40.034 10.5 15 13.7 101430 45
2009-11-20 11:41 51°10.424 2°40.068 11 9 13.6 101430 48
2009-11-20 11:42 51°10.439 2°40.104 13.6 15 13.6 101410 47
2009-11-20 11:43 51°10.456 2°40.14 11.8 23 13.6 101410 47
2009-11-20 11:44 51°10.466 2°40.24 12.7 28 13.6 101430 47
2009-11-20 11:45 51°10.525 2°40.427 10 36 13.6 101440 47
2009-11-20 11:46 51°10.651 2°40.655 7.6 21 13.6 101450 45
2009-11-20 11:47 51°10.794 2°40.906 6.2 43 13.6 101450 49
2009-11-20 11:48 51°10.923 2°41.153 7.7 53 13.6 101460 44
2009-11-20 11:49 51°11.041 2°41.418 10.9 56 13.6 101450 48
2009-11-20 11:50 51°11.157 2°41.684 6.2 34 13.6 101450 47
2009-11-20 11:51 51°11.27 2°41.955 8.8 37 13.6 101450 44
2009-11-20 11:52 51°11.372 2°42.237 9 35 13.6 101460 48
2009-11-20 11:53 51°11.457 2°42.536 7.2 26 13.6 101450 48
2009-11-20 11:54 51°11.536 2°42.835 10.4 28 13.6 101450 46
2009-11-20 11:55 51°11.584 2°43.154 7.9 25 13.6 101450 44
2009-11-20 11:56 51°11.596 2°43.482 11.9 15 13.5 101440 45
2009-11-20 11:57 51°11.592 2°43.813 9.4 13 13.5 101440 45
2009-11-20 11:58 51°11.619 2°44.146 10.4 28 13.5 101450 47
2009-11-20 11:59 51°11.66 2°44.476 11.4 24 13.5 101450 44
2009-11-20 12:00 51°11.707 2°44.81 8.6 24 13.5 101450 45
2009-11-20 12:01 51°11.757 2°45.139 8.9 18 13.5 101450 46
2009-11-20 12:02 51°11.806 2°45.471 9 24 13.5 101450 48
2009-11-20 12:03 51°11.852 2°45.802 7.4 19 13.5 101460 47
2009-11-20 12:04 51°11.901 2°46.133 9.2 25 13.5 101460 48
2009-11-20 12:05 51°11.95 2°46.464 9.1 21 13.5 101460 44
2009-11-20 12:06 51°11.998 2°46.796 9.1 19 13.6 101460 44
2009-11-20 12:07 51°12.072 2°47.113 5.3 26 13.6 101470 44
2009-11-20 12:08 51°12.166 2°47.417 4.8 29 13.6 101460 44
2009-11-20 12:09 51°12.264 2°47.716 7.2 29 13.6 101460 46
2009-11-20 12:10 51°12.362 2°48.016 6.8 25 13.6 101460 48
2009-11-20 12:11 51°12.459 2°48.318 6.7 27 13.7 101460 43
2009-11-20 12:12 51°12.556 2°48.622 6.2 21 13.7 101470 44
2009-11-20 12:13 51°12.646 2°48.933 8.9 27 13.7 101460 49
2009-11-20 12:14 51°12.733 2°49.249 7.3 26 13.7 101460 46
2009-11-20 12:15 51°12.827 2°49.558 7.5 23 13.8 101460 48
2009-11-20 12:16 51°12.923 2°49.868 6.5 27 13.8 101460 48
2009-11-20 12:17 51°13.028 2°50.168 9.2 25 13.8 101460 44
2009-11-20 12:18 51°13.13 2°50.469 6.1 22 13.8 101460 42
2009-11-20 12:19 51°13.23 2°50.774 7.2 22 13.8 101470 49
2009-11-20 12:20 51°13.332 2°51.079 5.3 22 13.8 101470 43
2009-11-20 12:21 51°13.437 2°51.381 8.4 22 13.8 101470 48
2009-11-20 12:22 51°13.545 2°51.68 6.7 16 13.8 101460 43
2009-11-20 12:23 51°13.65 2°51.979 6.5 24 13.8 101460 44
2009-11-20 12:24 51°13.76 2°52.279 6.7 22 13.9 101460 46
2009-11-20 12:25 51°13.871 2°52.577 6.4 15 13.9 101460 46
2009-11-20 12:26 51°13.981 2°52.878 5.6 27 13.9 101460 44
2009-11-20 12:27 51°14.096 2°53.175 6.9 17 13.9 101460 44
2009-11-20 12:28 51°14.214 2°53.467 5.9 25 13.9 101460 49
2009-11-20 12:29 51°14.343 2°53.749 7 26 14 101460 49
2009-11-20 12:30 51°14.476 2°54.027 6.4 31 14 101470 48
2009-11-20 12:31 51°14.61 2°54.305 6.2 33 14 101470 49
2009-11-20 12:32 51°14.739 2°54.59 7.2 31 14 101470 47
2009-11-20 12:33 51°14.868 2°54.869 7.1 28 14.1 101470 43
2009-11-20 12:34 51°14.999 2°55.151 5.5 30 14.1 101470 48
2009-11-20 12:35 51°15.131 2°55.432 5.1 33 14.1 101470 47
2009-11-20 12:36 51°15.267 2°55.703 6.8 29 14.1 101480 48
2009-11-20 12:37 51°15.403 2°55.97 6.3 28 14 101480 48
2009-11-20 12:38 51°15.535 2°56.236 5.5 39 14.1 101480 43
2009-11-20 12:39 51°15.668 2°56.505 7.3 37 14.1 101480 48
2009-11-20 12:40 51°15.802 2°56.777 7.2 38 14.1 101470 46
2009-11-20 12:41 51°15.937 2°57.045 5.4 34 14.1 101480 45
2009-11-20 12:42 51°16.071 2°57.312 7 41 14.1 101470 43
2009-11-20 12:43 51°16.206 2°57.581 4.6 39 14.1 101480 48
2009-11-20 12:44 51°16.342 2°57.851 6.5 44 14.1 101480 44
2009-11-20 12:45 51°16.479 2°58.123 7.7 45 14 101480 45
2009-11-20 12:46 51°16.615 2°58.396 7.7 37 14 101480 45
2009-11-20 12:47 51°16.752 2°58.673 5.7 54 14 101480 50
2009-11-20 12:48 51°16.929 2°59.02 6.5 35 14 101480 49
2009-11-20 12:49 51°17.062 2°59.294 6.5 32 14 101480 44
2009-11-20 12:50 51°17.203 2°59.575 5.4 34 14 101480 49
2009-11-20 12:51 51°17.34 2°59.852 4.6 34 14 101480 44
2009-11-20 12:52 51°17.478 3°0.134 5.4 39 14 101480 47
2009-11-20 12:53 51°17.619 3°0.417 4.1 27 14 101480 43
2009-11-20 12:54 51°17.759 3°0.699 5.1 38 14 101480 48
2009-11-20 12:55 51°17.9 3°0.977 5.2 35 13.9 101480 49
2009-11-20 12:56 51°18.034 3°1.249 7.3 35 13.9 101490 43
2009-11-20 12:57 51°18.176 3°1.529 3.8 33 13.9 101490 47
2009-11-20 12:58 51°18.315 3°1.804 4.5 44 13.9 101490 44
2009-11-20 12:59 51°18.454 3°2.074 4.5 28 13.9 101490 48
2009-11-20 13:00 51°18.589 3°2.347 5 39 13.8 101490 45
2009-11-20 13:01 51°18.722 3°2.616 3.1 32 13.8 101490 46
2009-11-20 13:02 51°18.858 3°2.883 5.3 38 13.8 101490 44
2009-11-20 13:03 51°18.994 3°3.149 3 30 13.7 101490 49
2009-11-20 13:04 51°19.129 3°3.423 4.1 38 13.7 101500 44
2009-11-20 13:05 51°19.271 3°3.693 3.6 43 13.7 101490 50
2009-11-20 13:06 51°19.409 3°3.969 3.9 33 13.6 101500 47
2009-11-20 13:07 51°19.534 3°4.227 6.1 44 13.6 101510 45
2009-11-20 13:08 51°19.601 3°4.393 7.7 37 13.6 101500 45
2009-11-20 13:09 51°19.634 3°4.519 8.6 29 13.6 101510 47
2009-11-20 13:10 51°19.651 3°4.649 8.8 17 13.6 101510 45
2009-11-20 13:11 51°19.647 3°4.805 9.1 10 13.5 101510 45
2009-11-20 13:12 51°19.638 3°4.922 11 9 13.5 101490 44
2009-11-20 13:13 51°19.635 3°5.033 10.5 19 13.5 101480 48
2009-11-20 13:14 51°19.643 3°5.146 10.5 24 13.5 101490 44
2009-11-20 13:15 51°19.655 3°5.266 9.4 28 13.5 101480 46
2009-11-20 13:16 51°19.676 3°5.393 10.2 32 13.5 101490 49
2009-11-20 13:17 51°19.694 3°5.508 10.1 29 13.5 101500 47
2009-11-20 13:18 51°19.711 3°5.615 8.4 32 13.4 101490 44
2009-11-20 13:19 51°19.73 3°5.718 9.1 32 13.4 101490 44
2009-11-20 13:20 51°19.75 3°5.818 9.1 31 13.4 101500 49
2009-11-20 13:21 51°19.772 3°5.919 9.1 32 13.4 101500 45
2009-11-20 13:22 51°19.796 3°6.02 8.9 32 13.4 101500 47
2009-11-20 13:23 51°19.819 3°6.123 10.1 32 13.4 101490 48
2009-11-20 13:24 51°19.845 3°6.227 12.3 33 13.4 101500 47
2009-11-20 13:25 51°19.869 3°6.33 9.9 32 13.4 101480 46
2009-11-20 13:26 51°19.889 3°6.437 9.1 30 13.5 101500 49
2009-11-20 13:27 51°19.911 3°6.549 10 26 13.5 101500 45
2009-11-20 13:28 51°19.93 3°6.665 8.4 26 13.5 101500 45
2009-11-20 13:29 51°19.947 3°6.781 11.7 23 13.5 101510 49
2009-11-20 13:30 51°19.968 3°6.899 10.3 23 13.5 101490 47
2009-11-20 13:31 51°19.985 3°7.017 8.5 26 13.5 101500 47
2009-11-20 13:32 51°20.001 3°7.132 10.6 28 13.5 101510 49
2009-11-20 13:33 51°20.021 3°7.246 9.7 29 13.5 101510 49
2009-11-20 13:34 51°20.041 3°7.358 10.1 32 13.5 101500 49
2009-11-20 13:35 51°20.068 3°7.476 8.9 34 13.5 101510 49
2009-11-20 13:36 51°20.094 3°7.587 9.1 30 13.4 101520 47
2009-11-20 13:37 51°20.122 3°7.701 7.4 30 13.4 101510 50
2009-11-20 13:38 51°20.146 3°7.812 8.3 30 13.4 101510 45
2009-11-20 13:39 51°20.169 3°7.921 8.6 29 13.4 101500 45
2009-11-20 13:40 51°20.196 3°8.03 9 32 13.4 101510 45
2009-11-20 13:41 51°20.22 3°8.139 11.1 28 13.4 101510 48
2009-11-20 13:42 51°20.248 3°8.249 11.1 30 13.4 101510 45
2009-11-20 13:43 51°20.272 3°8.356 11 30 13.3 101510 48
2009-11-20 13:44 51°20.296 3°8.466 10.5 33 13.3 101500 48
2009-11-20 13:45 51°20.321 3°8.575 9.6 25 13.4 101500 49
2009-11-20 13:46 51°20.327 3°8.671 11.4 19 13.4 101540 49
2009-11-20 13:47 51°20.338 3°8.769 9.2 22 13.4 101520 49
2009-11-20 13:48 51°20.349 3°8.864 11.9 15 13.4 101520 49
2009-11-20 13:49 51°20.352 3°8.946 11.7 6 13.3 101510 45
2009-11-20 13:50 51°20.361 3°9.014 12.1 16 13.4 101520 49
2009-11-20 13:51 51°20.376 3°9.072 12.3 10 13.4 101530 46
2009-11-20 13:52 51°20.393 3°9.119 7.7 6 13.3 101510 50
2009-11-20 13:53 51°20.4 3°9.189 11.5 22 13.3 101500 46
2009-11-20 13:54 51°20.447 3°9.29 5.6 22 13.3 101530 49
2009-11-20 13:55 51°20.521 3°9.278 8.8 249 13.4 101530 46
2009-11-20 13:56 51°20.56 3°9.159 12.3 28 13.3 101520 48
2009-11-20 13:57 51°20.549 3°8.966 15.3 24 13.3 101500 49
2009-11-20 13:58 51°20.498 3°8.741 17.2 317 13.3 101490 49
2009-11-20 13:59 51°20.423 3°8.533 15.5 320 13.3 101490 48
2009-11-20 14:00 51°20.359 3°8.319 14.5 317 13.3 101490 48
2009-11-20 14:01 51°20.298 3°8.104 13.8 316 13.2 101510 49
2009-11-20 14:02 51°20.239 3°7.875 14.2 282 13.2 101500 47
2009-11-20 14:03 51°20.183 3°7.643 14.1 24 13.2 101500 48
2009-11-20 14:04 51°20.124 3°7.414 16.9 320 13.2 101500 46
2009-11-20 14:05 51°20.064 3°7.192 13.2 316 13.2 101490 48
2009-11-20 14:06 51°20.02 3°6.977 12.6 321 13.2 101490 47
2009-11-20 14:07 51°19.938 3°6.789 11.5 321 13.2 101500 47
2009-11-20 14:08 51°19.85 3°6.601 12.9 320 13.2 101510 47
2009-11-20 14:09 51°19.774 3°6.405 14.8 318 13.2 101490 47
2009-11-20 14:10 51°19.699 3°6.199 14.6 24 13.2 101500 47
2009-11-20 14:11 51°19.626 3°5.994 14.2 318 13.3 101500 49
2009-11-20 14:12 51°19.552 3°5.789 16.8 319 13.3 101500 49
2009-11-20 14:13 51°19.477 3°5.585 14 318 13.3 101490 49
2009-11-20 14:14 51°19.407 3°5.376 13.1 320 13.3 101500 49
2009-11-20 14:15 51°19.333 3°5.17 13.3 320 13.3 101510 47
2009-11-20 14:16 51°19.258 3°4.973 15.4 320 13.3 101510 47
2009-11-20 14:17 51°19.184 3°4.776 13.4 317 13.3 101490 49
2009-11-20 14:18 51°19.112 3°4.569 12.3 317 13.3 101500 46
2009-11-20 14:19 51°19.036 3°4.361 14.4 322 13.3 101510 46
2009-11-20 14:20 51°18.956 3°4.162 14.2 319 13.3 101510 47
2009-11-20 14:21 51°18.873 3°3.965 15 319 13.2 101510 48
2009-11-20 14:22 51°18.794 3°3.77 13.3 319 13.2 101510 50
2009-11-20 14:23 51°18.714 3°3.573 13.5 321 13.2 101500 47
2009-11-20 14:24 51°18.633 3°3.374 13.2 322 13.2 101500 47
2009-11-20 14:25 51°18.554 3°3.169 14.7 317 13.2 101500 47
2009-11-20 14:26 51°18.48 3°2.958 14.8 322 13.2 101510 48
2009-11-20 14:27 51°18.405 3°2.752 12.2 319 13.2 101510 47
2009-11-20 14:28 51°18.33 3°2.544 12.4 320 13.2 101510 49
2009-11-20 14:29 51°18.254 3°2.337 15.1 320 13.2 101520 49
2009-11-20 14:30 51°18.175 3°2.129 12.9 319 13.2 101520 47
2009-11-20 14:31 51°18.099 3°1.918 14.4 318 13.2 101520 48
2009-11-20 14:32 51°18.02 3°1.702 14.8 318 13.2 101520 47
2009-11-20 14:33 51°17.943 3°1.49 12.8 318 13.2 101520 46
2009-11-20 14:34 51°17.866 3°1.279 14.2 317 13.2 101510 50
2009-11-20 14:35 51°17.789 3°1.065 14.8 317 13.2 101520 49
2009-11-20 14:36 51°17.712 3°0.848 13.1 317 13.2 101540 47
2009-11-20 14:37 51°17.634 3°0.63 13.1 321 13.2 101540 48
2009-11-20 14:38 51°17.553 3°0.42 14.6 320 13.1 101540 47
2009-11-20 14:39 51°17.472 3°0.207 13.3 321 13.1 101550 48
2009-11-20 14:40 51°17.392 2°59.992 13.8 320 13.1 101550 48
2009-11-20 14:41 51°17.31 2°59.775 13.5 321 13.1 101530 49
2009-11-20 14:42 51°17.231 2°59.554 12.6 320 13.1 101540 47
2009-11-20 14:43 51°17.151 2°59.334 14.5 320 13.1 101540 48
2009-11-20 14:44 51°17.07 2°59.115 13.3 320 13.1 101550 49
2009-11-20 14:45 51°16.991 2°58.893 13.4 319 13.2 101550 48
2009-11-20 14:46 51°16.913 2°58.67 13.8 316 13.2 101540 49
2009-11-20 14:47 51°16.834 2°58.454 14.8 319 13.2 101540 47
2009-11-20 14:48 51°16.753 2°58.236 15 319 13.2 101550 47
2009-11-20 14:49 51°16.674 2°58.015 12.9 319 13.2 101550 47
2009-11-20 14:50 51°16.594 2°57.795 15.3 318 13.2 101550 47
2009-11-20 14:51 51°16.514 2°57.572 14.3 318 13.2 101540 47
2009-11-20 14:52 51°16.418 2°57.305 14 279 13.2 101550 49
2009-11-20 14:53 51°16.335 2°57.087 14.3 282 13.2 101540 49
2009-11-20 14:54 51°16.255 2°56.863 14.7 282 13.1 101550 48
2009-11-20 14:55 51°16.178 2°56.637 14.8 280 13.1 101540 49
2009-11-20 14:56 51°16.099 2°56.412 14.7 280 13.1 101560 50
2009-11-20 14:57 51°16.019 2°56.188 17 283 13.1 101550 49
2009-11-20 14:58 51°15.94 2°55.965 12.5 282 13.1 101540 49
2009-11-20 14:59 51°15.852 2°55.751 13.7 283 13 101560 50
2009-11-20 15:00 51°15.741 2°55.563 14.4 285 13 101550 48
2009-11-20 15:01 51°15.623 2°55.383 13.7 281 13 101570 49
2009-11-20 15:02 51°15.504 2°55.208 16 278 13 101560 49
2009-11-20 15:03 51°15.374 2°55.059 13.9 280 13 101550 49
2009-11-20 15:04 51°15.22 2°54.979 14.9 281 13 101570 50
2009-11-20 15:05 51°15.059 2°54.927 13.3 280 13 101550 48
2009-11-20 15:06 51°14.899 2°54.878 14.5 279 13 101560 48
2009-11-20 15:07 51°14.738 2°54.849 15.7 281 13 101570 48
2009-11-20 15:08 51°14.575 2°54.885 10.4 280 13 101560 50
2009-11-20 15:09 51°14.42 2°54.998 12 351 13 101570 48
2009-11-20 15:10 51°14.294 2°55.188 9.2 353 13.1 101590 47
2009-11-20 15:11 51°14.184 2°55.357 7.8 279 13.1 101610 50
2009-11-20 15:12 51°14.06 2°55.461 6.1 281 13.1 101610 50
2009-11-20 15:13 51°13.946 2°55.543 5.5 284 13.1 101620 51
2009-11-20 15:14 51°13.831 2°55.627 5.2 283 13.1 101620 51
2009-11-20 15:15 51°13.755 2°55.71 4.2 351 13.1 101620 46
2009-11-20 15:16 51°13.706 2°55.807 5.4 356 13.1 101620 52
2009-11-20 15:17 51°13.674 2°55.9 2.7 284 13.1 101630 50